Погода в Сырково

Россия / Новгородская область     58°34′46″N   31°14′01″E
темп.,
°C
ветер,
м/с
пор.,
м/с
влажн.,
%
обл.,
%
осадки,
мм/ч
давл.,
гПа
погр.,
м
27 октября, ср
ср2700:00+3ююз41089100 0.0 1011351
03:00+4ююз41089100 0.0 1009421
06:00+5юз41195100 1.6 1007503
09:00+7зюз41090100 1.8 1007726
12:00+7з51084100 0.1 1009682
15:00+8з51175100 0.3 1010862
18:00+7зюз4977100 0.0 1010449
21:00+7ююз41083100 0.0 1009441
28 октября, чт
чт2800:00+6ююв51095100 1.4 1006371
03:00+7ю51197100 6.0 1003487
06:00+10з41193100 1.4 1003757
09:00+9зсз51187100 1.8 1007769
12:00+7с5984100 0.3 1013884
15:00+7ссз3687100 0.3 1017507
18:00+7ссв1189100 0.1 102136
21:00+6ююв2290100 0.1 102258
29 октября, пт
пт2900:00+6ю3789100 0.0 1023199
03:00+6ю41086100 0.1 1023390
06:00+6ю61385100 0.1 1021507
09:00+8ююз51189100 0.1 1021622
12:00+10юз5128518 0.0 1021526
15:00+12юз5128035 0.0 1021588
18:00+10юз4118950 0.0 1022336
21:00+9ююз41294100 0.0 1022363
30 октября, сб
сб3000:00+9ююз4119642 0.0 1022333
03:00+8ююз5139630 0.0 1022408
06:00+8ююз5139462 0.0 1022391
09:00+7ю4129036 0.0 1022369
12:00+9ююз51277100 0.0 1022463
15:00+10ю5127274 0.0 1021542
18:00+8ю5138096 0.0 1020437
21:00+8ю5148337 0.0 1020487
31 октября, вс
вс3100:00+7ююз513875 0.0 1019470
03:00+7ююз513910 0.0 1019431
06:00+6ююз4119478 0.0 1019383
09:00+6ююз4109510 0.0 1019314
12:00+8ю4985100 0.0 1019337
15:00+9ю4883100 0.0 1018385
18:00+8ю4987100 0.0 1017273
21:00+8ю41190100 0.0 1016349